User: anonymous   Login
Location: Newark
(55.7816°N, 8.2389°E)
Time: 09:13:28
(UTC+00:00)
Language:

LilacSat-2 - Orbit

View from above orbital plane
View from above orbital plane
View from above satellite
View from above satellite

Ground track
Ground track

The orbit data is extracted from the following two-line orbital elements,

1 40908U 15049K   20222.90377242  .00000122  00000-0  10281-4 0  9993
2 40908  97.4916 221.4610 0015329 191.2184 231.1542 15.14075018270088
Epoch (UTC): 09 August 2020 21:41:25
Eccentricity: 0.0015329
inclination: 97.4916°
perigee height: 513 km
apogee height: 534 km
right ascension of ascending node: 221.4610°
argument of perigee: 191.2184°
revolutions per day: 15.14075018
mean anomaly at epoch: 231.1542°
orbit number at epoch: 27008

The dashed part of the orbit path shows where the satellite is in the earth's shadow,  

DLR